Regional Weather Roundup
Issued by NWS

Home | Current Version | Previous Version | Text Only | Print | Product List | Glossary Off
Versions: 1 2 3 4 5 6 7 8 9 10 11 12 13 14 15 16 17 18 19 20 21 22 23 24 25 26 27 28 29 30 31 32 33 34 35 36 37 38 39 40 41 42 43 44 45 46 47 48 49 50

327
ASUS43 KDMX 230801
RWRIA

WEATHER ROUNDUP FOR IOWA
NATIONAL WEATHER SERVICE DES MOINES IA
300 AM CDT MON OCT 23 2017

NOTE: "FAIR" INDICATES FEW OR NO CLOUDS BELOW 12,000 FEET WITH NO
SIGNIFICANT WEATHER AND/OR OBSTRUCTIONS TO VISIBILITY.

* - THESE STATIONS ARE NOT NWS STATIONS...THUS NOT UNDER NWS
QUALITY CONTROL.  THEY ALSO DO NOT REPORT WEATHER SUCH
AS PRECIPITATION OR FOG.

IAZ001>003-012>014-020>022-031>034-043>046-230900-
   NORTHWEST IOWA

CITY           SKY/WX    TMP DP  RH WIND       PRES   REMARKS
DENISON *      CLEAR     48  34  57 S7        29.90F
LE MARS *      CLOUDY    50  34  53 S10       29.83F
ORANGE CITY *  PTCLDY    48  36  61 S6        29.83F
SHELDON *      CLEAR     48  32  53 S7        29.82R
SIOUX CITY     PTCLDY    44  37  76 E7        29.85F
SPENCER        PTCLDY    47  34  60 SW6       29.83F
STORM LAKE *   PTCLDY    46  34  61 S13       29.85F
$$

IAZ055>058-069>071-079>083-090>094-230900-
   SOUTHWEST IOWA

CITY           SKY/WX    TMP DP  RH WIND       PRES   REMARKS
ATLANTIC *     PTCLDY    43  36  75 S5        29.93F
AUDUBON *      PTCLDY    43  37  81 CALM      29.93F
CLARINDA *     CLEAR     43  37  81 S5        29.98S
COUNCIL BLFS * CLOUDY    46  36  66 S8        29.91F
CRESTON *      CLEAR     45  39  81 S10       29.97S
HARLAN  *      CLEAR     45  36  70 CALM      29.94F
LAMONI         CLEAR     45  41  86 S8        29.98F
RED OAK *      PTCLDY    45  36  70 S5        29.94F
SHENANDOAH *   CLEAR     43  37  81 CALM      29.95S
$$

IAZ047>049-059>061-072>074-084-230900-
   CENTRAL IOWA

CITY           SKY/WX    TMP DP  RH WIND       PRES   REMARKS
AMES           CLEAR     41  40  96 SE5       29.94F
ANKENY *       CLEAR     43  41  93 SE5       29.96F
BOONE *        CLEAR     45  37  76 S7        29.92F
CHARITON *     CLEAR     46  41  81 SW8       29.97F
DES MOINES     CLEAR     46  41  82 S8        29.95F
GRINNELL*      CLEAR     44  40  86 S6        29.98F
KNOXVILLE *    CLEAR     46  39  76 S7        29.96F
MARSHALLTOWN   CLEAR     44  41  89 S8        29.95F
NEWTON *       CLEAR     41  39  93 S6        29.97F
PELLA *        CLEAR     43  39  88 CALM      29.99S
PERRY *          N/A     42  39  89 SE6       29.93S
$$

IAZ004>006-015-016-023>025-035-036-230900-
   NORTH CENTRAL IOWA

CITY           SKY/WX    TMP DP  RH WIND       PRES   REMARKS
ALGONA *       PTCLDY    46  36  66 S12       29.87F
CLARION *      CLOUDY    46  39  76 S12       29.90F
ESTHERVILLE    PTCLDY    44  36  73 S9        29.83F
FORT DODGE *   CLEAR     48  35  60 S10       29.90F
MASON CITY     CLOUDY    44  39  82 S9        29.92F
FOREST CITY *    N/A     46  37  71 S7        29.89F
WEBSTER CITY * CLEAR     43  37  81 S6        29.90S
IOWA FALLS *     N/A     43  40  90 S5        29.95F
$$

IAZ007>011-017>019-026>030-037>042-050>054-066-230900-
   NORTHEAST IOWA

CITY           SKY/WX    TMP DP  RH WIND       PRES   REMARKS
CEDAR RAPIDS   PTCLDY    42  42 100 S3        29.98S
CHARLES CITY * CLOUDY    45  43  93 S7        29.94F
CLINTON *      FOG       46  46 100 W3        30.00S VSB 1/2
DECORAH *      CLEAR     43  41  93 S5        29.94F
DUBUQUE        CLOUDY    42  41  96 SW3       29.98F
MONTICELLO *   CLOUDY    39  39 100 CALM      29.98F
OELWEIN *      CLEAR     41  41 100 S9        29.96F
WATERLOO       CLEAR     43  40  89 S7        29.95F
$$

IAZ064-065-067-068-078-230900-
   EAST CENTRAL IOWA

CITY           SKY/WX    TMP DP  RH WIND       PRES   REMARKS
DAVENPORT      FOG       46  46 100 CALM      30.03R VSB 3/4
IOWA CITY      FOG       44  43  96 CALM      30.01F VSB 1/4
MUSCATINE *    MOCLDY    46  45  93 SE6       30.00F FOG
QUAD CITIES    CLOUDY    49  47  93 SW3       30.00S
$$

IAZ062-063-075>077-085>089-095>099-230900-
   SOUTHEAST IOWA

CITY           SKY/WX    TMP DP  RH WIND       PRES   REMARKS
BURLINGTON     CLOUDY    48  48 100 W3        30.00F
FAIRFIELD *    CLOUDY    46  43  87 SW5       29.99F
FORT MADISON * CLOUDY    48  46  93 CALM      30.00F
KEOKUK *       MOCLDY    48  48 100 CALM      29.99F
OTTUMWA        CLOUDY    45  43  93 S6        29.99F
WASHINGTON *   CLOUDY    43  43 100 CALM      30.00F
$$

ABBREVIATIONS USED IN REMARKS
   TC - TEMPERATURES IN CELSIUS
  WCI - WIND CHILL INDEX
   HX - HEAT INDEX
  VSB - VISIBILITY
$$





USA.gov is the U.S. government's official web portal to all federal, state and local government web resources and services.